Tracking 31028 objects as of 17-Jul-2025
HD Live streaming from Space Station
objects crossing your sky now

STARLINK-32335

Track STARLINK-32335 now!
10-day predictions
STARLINK-32335 is classified as:


NORAD ID: 61703
Int'l Code: 2024-195S
Perigee: 481.5 km
Apogee: 483.2 km
Inclination: 53.2 °
Period: 94.1 minutes
Semi major axis: 6853 km
RCS: Unknown
Launch date: October 30, 2024
Source: United States (US)
Launch site: AIR FORCE WESTERN TEST RANGE (AFWTR)
Your satellite tracking list
Your tracking list is empty




NASA's NSSDC Master Catalog

Two Line Element Set (TLE):
1 61703U 24195S   25198.22120294 -.00000609  00000-0 -84398-5 0  9999
2 61703  53.1591 168.8383 0001249  91.4169 268.6975 15.30193827 41205
Source of the keplerian elements: AFSPC